This is the latest recevied weather packets stored in our database for station/object WD5U-1. If no packets are shown the sender has not sent any weather packets the latest 10 day(s).
| Time | Temp. | Humidity | Pressure | Rain* | Wind** | Luminosity | Snow |
|---|---|---|---|---|---|---|---|
| 1777651343 | 16.67° C | 77% | 1019.2 hPa | 0 mm | - | - | - |
| 1777650865 | 15.56° C | 77% | 1019.4 hPa | 0 mm | - | - | - |
| 1777650501 | 16.11° C | 79% | 1019.3 hPa | 0 mm | - | - | - |
| 1777650025 | 15° C | 81% | 1019.4 hPa | 0 mm | - | - | - |
| 1777646788 | 14.44° C | 85% | 1019.4 hPa | 0 mm | - | - | - |
| 1777646666 | 14.44° C | 85% | 1019.3 hPa | 0 mm | - | - | - |
| 1777646544 | 14.44° C | 85% | 1019.3 hPa | 0 mm | - | - | - |
| 1777645703 | 14.44° C | 87% | 1019.2 hPa | 0 mm | - | - | - |
| 1777645479 | 14.44° C | 87% | 1019.2 hPa | 0 mm | - | - | - |
| 1777644620 | 13.89° C | 89% | 1018.6 hPa | 0 mm | - | - | - |
| 1777644266 | 13.89° C | 90% | 1018.7 hPa | 0 mm | - | - | - |
| 1777644147 | 13.89° C | 90% | 1018.4 hPa | 0 mm | - | - | - |
| 1777642939 | 13.89° C | 92% | 1018.7 hPa | 0 mm | - | - | - |
| 1777641767 | 13.33° C | 92% | 1018.8 hPa | 0 mm | - | - | - |
| 1777641623 | 13.33° C | 92% | 1018.7 hPa | 0 mm | - | - | - |
| 1777641260 | 13.33° C | 92% | 1018.3 hPa | 0 mm | - | - | - |
| 1777640540 | 13.33° C | 92% | 1018.4 hPa | 0 mm | - | - | - |
| 1777640419 | 13.33° C | 92% | 1018.5 hPa | 0 mm | - | - | - |
| 1777639700 | 13.33° C | 92% | 1018.4 hPa | 0 mm | - | - | - |
| 1777639335 | 13.33° C | 92% | 1018.4 hPa | 0 mm | - | - | - |
| 1777638738 | 13.33° C | 91% | 1018.1 hPa | 0 mm | - | - | - |
| 1777637779 | 13.33° C | 88% | 1018.2 hPa | 0 mm | - | - | - |
| 1777637667 | 13.33° C | 88% | 1018.1 hPa | 0 mm | - | - | - |
| 1777636936 | 13.33° C | 89% | 1017.2 hPa | 0 mm | - | - | - |
| 1777636582 | 13.33° C | 88% | 1017.3 hPa | 0 mm | - | - | - |
* Rain latest hour (hover to see other rain measurements)
** Current wind speed in m/s (hover to see current wind gust speed)